Cherry Point, NC

10:20 PM EDT on July 27, 2016 (GMT -0400)
Cherry Point Marine Corps Air Station

Weather History for KNKT - November, 2012

Change the Weather History Date:

Tuesday, November 6, 2012

  Actual Average Record
Temperature  
Mean Temperature 45 °F -  
Max Temperature 48 °F 66 °F 82 °F (2003)
Min Temperature 42 °F 45 °F 37 °F (1998)
Degree Days  
Heating Degree Days 20    
Moisture  
Dew Point 41 °F    
Average Humidity 83    
Maximum Humidity 93    
Minimum Humidity 71    
Precipitation  
Precipitation 0.37 in - - ()
Sea Level Pressure  
Sea Level Pressure 29.96 in    
Wind  
Wind Speed 10 mph ()    
Max Wind Speed 18 mph    
Max Gust Speed 23 mph    
Visibility 8.7 miles    
Events Rain    
Averages and records for this station are not official NWS values.
T = Trace of Precipitation, MM = Missing Value Source: Averaged Metar Reports

Daily Weather History Graph

Daily Weather History Graph

Search for Another Location

Airport or City:

Trip Planner

Search our weather history database for the weather conditions in past years. The results will help you decide how hot, cold, wet, or windy it might be!

Date:

Astronomy

Nov. 06, 2012 Rise Set
Actual Time 6:33 AM EST 5:08 PM EST
Civil Twilight 6:07 AM EST 5:34 PM EST
Nautical Twilight 5:36 AM EST 6:04 PM EST
Astronomical Twilight 5:07 AM EST 6:34 PM EST
Moon 11:42 PM EST (11/6) 12:26 PM EST (11/6)
Length of Visible Light 11h 27m
Length of Day
10h 34m
Waning Gibbous, 53% of the Moon is Illuminated
Nov 6
Waning Gibbous
Nov 6
Last Quarter
Nov 13
New
Nov 20
First Quarter
Nov 28
Full

Hourly Weather History & Observations

Time (EST) Temp. Windchill Dew Point Humidity Pressure Visibility Wind Dir Wind Speed Gust Speed Precip Events Conditions
12:54 AM 45.0 °F 40.1 °F 37.0 °F 74% 30.09 in 10.0 mi NNE 9.2 mph - N/A   Clear
1:54 AM 44.1 °F 39.0 °F 36.0 °F 73% 30.08 in 10.0 mi NNE 9.2 mph - N/A   Clear
2:54 AM 43.0 °F 37.7 °F 36.0 °F 76% 30.07 in 10.0 mi NNE 9.2 mph - N/A   Clear
3:54 AM 42.1 °F 36.6 °F 36.0 °F 79% 30.06 in 10.0 mi NNE 9.2 mph - N/A   Clear
4:54 AM 42.1 °F 36.6 °F 36.0 °F 79% 30.06 in 10.0 mi NNE 9.2 mph - N/A   Clear
5:54 AM 43.0 °F 36.4 °F 36.0 °F 76% 30.05 in 10.0 mi NNE 12.7 mph - N/A   Clear
6:54 AM 44.1 °F 38.6 °F 37.0 °F 76% 30.05 in 10.0 mi NNE 10.4 mph - N/A   Clear
7:54 AM 45.0 °F 39.7 °F 37.9 °F 76% 30.06 in 10.0 mi NNE 10.4 mph - N/A   Mostly Cloudy
8:54 AM 46.9 °F - 37.9 °F 71% 30.05 in 10.0 mi NNE 12.7 mph - N/A   Mostly Cloudy
9:54 AM 46.9 °F - 39.0 °F 74% 30.05 in 10.0 mi North 8.1 mph - N/A   Mostly Cloudy
10:54 AM 48.9 °F - 39.9 °F 71% 30.04 in 10.0 mi North 10.4 mph - N/A   Mostly Cloudy
11:54 AM 48.9 °F - 39.9 °F 71% 29.99 in 10.0 mi North 11.5 mph - N/A   Overcast
12:54 PM 46.9 °F - 42.1 °F 83% 29.99 in 5.0 mi NNE 11.5 mph - 0.02 in Rain Light Rain
1:54 PM 46.9 °F - 43.0 °F 86% 29.97 in 4.0 mi North 10.4 mph - 0.09 in Rain Light Rain
2:54 PM 46.9 °F - 44.1 °F 90% 29.95 in 4.0 mi NNE 10.4 mph - 0.09 in Rain Light Rain
3:54 PM 48.0 °F - 45.0 °F 89% 29.93 in 6.0 mi North 11.5 mph - 0.04 in Rain Light Rain
4:54 PM 48.0 °F - 45.0 °F 89% 29.91 in 7.0 mi NNE 13.8 mph - 0.02 in Rain Light Rain
5:54 PM 48.0 °F - 45.0 °F 89% 29.89 in 6.0 mi NE 15.0 mph - 0.02 in Rain Light Rain
6:06 PM 48.2 °F - 44.6 °F 87% 29.90 in 6.0 mi NE 15.0 mph - 0.01 in Rain Light Rain
6:54 PM 48.0 °F - 45.0 °F 89% 29.91 in 5.0 mi North 11.5 mph - 0.05 in Rain Light Rain
7:54 PM 46.9 °F - 44.1 °F 90% 29.86 in 8.0 mi North 17.3 mph - 0.04 in Rain Light Rain
8:54 PM 45.0 °F 37.4 °F 42.1 °F 90% 29.88 in 10.0 mi NNW 18.4 mph 23.0 mph N/A   Overcast
9:06 PM 44.6 °F 37.4 °F 42.8 °F 93% 29.89 in 10.0 mi NNW 16.1 mph - N/A   Overcast
9:17 PM 44.6 °F 38.1 °F 42.8 °F 93% 29.89 in 10.0 mi North 13.8 mph - N/A   Overcast
9:54 PM 44.1 °F 37.4 °F 41.0 °F 89% 29.88 in 10.0 mi North 13.8 mph - N/A   Overcast
10:18 PM 44.6 °F 38.4 °F 41.0 °F 87% 29.87 in 10.0 mi North 12.7 mph 20.7 mph N/A   Overcast
10:39 PM 44.6 °F 39.7 °F 41.0 °F 87% 29.87 in 10.0 mi NNW 9.2 mph - N/A   Overcast
10:49 PM 44.6 °F 37.8 °F 41.0 °F 87% 29.87 in 10.0 mi NNW 15.0 mph - N/A   Overcast
10:54 PM 45.0 °F 38.9 °F 41.0 °F 86% 29.86 in 10.0 mi NNW 12.7 mph - N/A   Overcast
11:54 PM 44.1 °F 36.8 °F 39.9 °F 85% 29.83 in 10.0 mi NNW 16.1 mph - N/A   Overcast